SL-16 DEB *, 42255

Orbit data source: Space-Track

SL-16 DEB *, 42255 is space debris in LEO originally from a launch on Fri, 26 Mar 1993 UTC launched from the Tyuratam Missile And Space Complex (TTMTR). Debris objects in space refer to the collection of defunct objects orbiting the Earth. Examples of debris include non-operational satellites, rocket bodies, and fragments generated from explosions, collisions, or faulty payload assembly.

Loading next visibility...
Identifier
42255, 1993-016DK
Orbit
LEO
Country
Flag of CISCIS
Related business
Manufacturer
Unknown
Mission
Spacecraft
Bus & Motor
Unknown
Mass
Unknown
Launch date (UTC)
1993-03-26 (33 years ago)
Launch vehicle
Unknown
Launch site
Tyuratam Missile And Space Complex (TTMTR)
Object type
Payload
Rocket body
Debris
Shape & HBR
Unknown shape, 0.1 m
Radar Cross Section
Small (<0.1 m²)

Expand to show TLE details & history
Last TLE update: 1 day ago

TLE from 1 day ago
0 SL-16 DEB *
1 42255U 93016DK  25288.23875043  .00001312  00000-0  60815-3 0  9994
2 42255  71.0048  96.4398 0007677 147.6919  31.4683 14.22590630616193
Epoch: 2025-10-15T05:43Z
TLE epoch observation values (Epoch: 2025-10-15T05:43:48.037Z)
Latitude
0.648°
Longitude
166.25207°
Altitude
814.222 km
Speed
7.449 km/s
True Right ascension
18h 24m 52s
True Declination
0° 38' 39"
Sunlit
Object was in daylight at epoch
Visualization orbit readout
Latitude
Unknown
Longitude
Unknown
Altitude
Unknown
Speed
Unknown
Apparent Right ascension
Unknown
Apparent Declination
Unknown
Sunlit
N/A
Visualization observer readout
Local Sidereal Time
08:51:38
Azimuth
Unknown
Elevation
Unknown
Doppler factor
Unknown
Orbital elements
Apogee altitude
820.044 km
Perigee altitude
809 km
Semi-major axis
7,192.659 km
Eccentricity
0.00077
Inclination
71.0048°
RAAN
96.4398°
Arg. of periapsis
147.6919°
True anomaly
31.51426°
Mean anomaly
31.4683°
Eccentric anomaly
31.49128°
Mean motion
3.55802 °/min
Orbital period
101.18 mins
BSTAR
0.00060815
Loading maneuver chart data...
Computing Atmospheric mass density...
Loading historical data...
Loading historical data...
Loading historical data...
Loading historical data...
Loading historical data...
Loading historical data...
Loading historical data...

Documentation

Showing up to 5 results
|